Weather in Khorlovo

Russia / Moscow Oblast     55°18′26″N   38°49′58″E
temp.,
°C
wind,
m/s
gust,
m/s
humid.,
%
clouds,
%
prec.,
mm/h
press.,
hPa
HPBL,
m
23 october, sat
sat2300:00+7wsw61369100 0.0 1004740
03:00+6sw61269100 0.0 1004753
06:00+6sw61269100 0.0 1004777
09:00+6sw611695 0.0 1005957
12:00+9sw71158100 0.0 10051355
15:00+7wsw61063100 0.1 10061386
18:00+6wsw612679 0.0 1008635
21:00+4wsw512785 0.0 1009474
24 october, sun
sun2400:00+3wsw512766 0.0 1010491
03:00+4wsw5119196 0.0 1010648
06:00+4wsw5985100 0.0 1010699
09:00+3wnw598493 0.3 1012722
12:00+3wnw71195100 0.4 1013844
15:00+2wnw51195100 1.0 1015816
18:00+2nnw7127973 0.3 10181002
21:00+1nnw6127610 0.3 1021800
25 october, mon
mon2500:000nw512867 0.0 1023532
03:00−2nw410905 0.0 1025361
06:00−2nw38925 0.0 1027240
09:00−1nw36827 0.0 1029303
12:00+3wnw3462100 0.0 1029773
15:00+3w465379 0.0 1028886
18:00+1sw3971100 0.0 1028200
21:000sw412779 0.0 1027303
26 october, tue
tue2600:000sw513760 0.0 1026339
03:000wsw5148021 0.0 1026350
06:000wsw51383100 0.0 1025366
09:00+2wsw51377100 0.0 1024422
12:00+5wsw6116097 0.0 1024540
15:00+6wsw6136064 0.0 1023617
18:00+4sw51466100 0.0 1022441
21:00+4sw61468100 0.0 1022442
27 october, wed
wed2700:00+3sw5147382 0.0 1022392
03:00+2sw513755 0.0 1021352
06:00+1sw512765 0.0 1020326
09:00+3sw514690 0.0 1020437
12:00+7sw7135497 0.0 1018649
15:00+6sw71263100 0.0 1014793
18:00+3wsw61096100 1.4 1015703
21:00+5wsw51190100 1.7 1015453